This demonstration page uses our WeatherBlox Daily Observations layout. Learn more.

Left ArrowRight Arrow

Hourly Observations for August 16, 2022

Temp ( °F °C ) Dew Point ( °F °C ) Humidity (%) Winds ( mph kmh ) Pressure ( in mb ) Visibility ( mi km ) Precip ( " mm )
12:46 am 00:46 Cloudy 63 17 63 17 100 100 ENE 13 20 30.00 1016 10 16 0.01 0.25
12:56 am 00:56 Cloudy 63 17.2 61 16.1 93 93 ENE 14 22 30.01 1016 10 16 0.01 0.25
1:56 am 01:56 Cloudy 62 16.7 61 16.1 96 96 E 13 20 29.99 1016 10 16 0.00 0.00
2:26 am 02:26 Cloudy 63 17 61 16 94 94 E 10 17 29.99 1016 8 13 0.00 0.00
2:56 am 02:56 Cloudy 62 16.7 61 16.1 96 96 ENE 7 11 30.02 1017 8 13 0.00 0.00
3:56 am 03:56 Cloudy with Mist and Fog 62 16.7 61 16.1 96 96 N 6 9 30.02 1017 2 3 0.00 0.00
4:56 am 04:56 Cloudy with Mist and Fog 62 16.7 61 16.1 96 96 NNE 12 19 30.01 1016 3 4 0.00 0.00
5:44 am 05:44 Cloudy with Mist and Fog 63 17 61 16 94 94 NNE 14 22 29.99 1016 3 5 0.00 0.00
5:56 am 05:56 Cloudy with Mist and Fog 62 16.7 61 16.1 96 96 NNE 15 24 30.00 1016 4 6 0.00 0.00
6:56 am 06:56 Cloudy with Mist and Fog 61 16.1 60 15.6 97 97 NNE 10 17 30.06 1018 2 3 0.00 0.00
7:56 am 07:56 Cloudy with Mist and Fog 60 15.6 60 15.6 100 100 ENE 9 15 30.09 1019 2 3 0.01 0.25
8:12 am 08:12 Cloudy with Mist and Fog 61 16 61 16 100 100 NE 9 15 30.08 1019 3 4 0.01 0.25
8:36 am 08:36 Cloudy with Mist and Fog 61 16 61 16 100 100 NE 13 20 30.08 1019 3 5 0.01 0.25
8:56 am 08:56 Cloudy with Mist and Fog 60 15.6 59 15 96 96 ENE 14 22 30.09 1019 4 6 0.01 0.25
9:47 am 09:47 Cloudy 61 16 59 15 94 94 ENE 12 19 30.08 1019 10 16 0.00 0.00
9:56 am 09:56 Cloudy 60 15.6 59 15 96 96 ENE 14 22 30.09 1019 8 13 0.00 0.00
10:56 am 10:56 Cloudy 62 16.7 60 15.6 93 93 NE 14 22 30.08 1019 10 16 0.00 0.00
11:47 am 11:47 Cloudy 64 18 61 16 88 88 NE 16 26 30.04 1017 10 16 0.00 0.00
11:56 am 11:56 Cloudy 65 18.3 61 16.1 87 87 NE 15 24 30.08 1019 10 16 0.00 0.00
12:56 pm 12:56 Cloudy 64 17.8 61 16.1 90 90 ENE 10 17 30.10 1019 10 16 0.00 0.00
1:23 pm 13:23 Cloudy 64 18 61 16 88 88 ENE 12 19 30.08 1019 9 14 0.00 0.00
1:56 pm 13:56 Cloudy with Light Rain 63 17.2 62 16.7 97 97 ENE 10 17 30.11 1020 3 4 0.01 0.13
2:20 pm 14:20 Cloudy with Light Rain 64 18 63 17 94 94 ENE 9 15 30.08 1019 3 5 0.01 0.13
2:30 pm 14:30 Cloudy with Light Rain 63 17 63 17 100 100 ENE 12 19 30.09 1019 3 4 0.01 0.13
2:56 pm 14:56 Cloudy with Mist and Fog 64 17.8 63 17.2 96 96 ENE 12 19 30.12 1020 6 10 0.01 0.13
3:52 pm 15:52 Cloudy with Mist and Fog 64 18 63 17 94 94 ENE 8 13 30.09 1019 6 10 0.00 0.00
3:56 pm 15:56 Cloudy with Mist and Fog 64 17.8 62 16.7 93 93 ENE 9 15 30.12 1020 6 10 0.00 0.00
4:07 pm 16:07 Cloudy 64 18 63 17 94 94 ENE 7 11 30.09 1019 10 16 0.00 0.00
4:32 pm 16:32 Cloudy 64 18 63 17 94 94 ENE 9 15 30.08 1019 10 16 0.00 0.00
4:56 pm 16:56 Cloudy 66 18.9 62 16.7 87 87 ENE 8 13 30.11 1020 10 16 0.00 0.00
5:56 pm 17:56 Cloudy 64 17.8 62 16.7 93 93 ENE 10 17 30.11 1020 10 16 0.00 0.00
6:40 pm 18:40 Cloudy 64 18 63 17 94 94 ENE 10 17 30.09 1019 9 14 0.00 0.00
6:47 pm 18:47 Cloudy 64 18 63 17 94 94 NE 8 13 30.08 1019 10 16 0.00 0.00
6:56 pm 18:56 Cloudy 65 18.3 62 16.7 90 90 ENE 9 15 30.11 1020 10 16 0.00 0.00
8:04 pm 20:04 Cloudy with Light Rain 64 18 63 17 94 94 ENE 7 11 30.08 1019 5 8 0.01 0.13
8:12 pm 20:12 Cloudy with Light Rain 64 18 63 17 94 94 ENE 7 11 30.08 1019 6 10 0.01 0.13
8:24 pm 20:24 Cloudy with Light Rain 64 18 63 17 94 94 ENE 9 15 30.08 1019 7 11 0.01 0.13
8:53 pm 20:53 Cloudy with Light Rain 64 18 63 17 94 94 ENE 6 9 30.09 1019 9 14 0.01 0.13
8:56 pm 20:56 Cloudy with Light Rain 64 17.8 63 17.2 96 96 ENE 7 11 30.13 1020 10 16 0.01 0.13
9:05 pm 21:05 Cloudy with Light Rain 64 18 63 17 94 94 ENE 6 9 30.10 1019 9 14 0.01 0.13
9:20 pm 21:20 Cloudy with Light Rain 64 18 63 17 94 94 ENE 6 9 30.10 1019 8 13 0.01 0.13
9:36 pm 21:36 Cloudy 64 18 63 17 94 94 ENE 7 11 30.10 1019 8 13 0.01 0.13
9:49 pm 21:49 Cloudy 64 18 63 17 94 94 E 6 9 30.10 1019 8 13 0.01 0.13
9:56 pm 21:56 Cloudy 64 17.8 63 17.2 96 96 E 6 9 30.14 1021 9 14 0.01 0.25
10:11 pm 22:11 Cloudy 64 18 63 17 94 94 ENE 6 9 30.11 1020 10 16 0.00 0.00
10:56 pm 22:56 Cloudy 64 17.8 63 17.2 96 96 NE 5 7 30.15 1021 7 11 0.00 0.00
11:56 pm 23:56 Cloudy 64 17.8 63 17.2 96 96 NE 3 6 30.15 1021 7 11 0.00 0.00

Powered by AerisWeather